Simultaneous Nadir Overpasses (SNOs) Predictions

Prediction of SNOs between NOAA-15 and METOP-C Satellite Orbit:

Table of predicted SNOs for the next 14.0 days since TLE Epoch: 2/11/2023
Index Date (NOAA-15) Time (NOAA-15) Lat,Lon (NOAA-15) SZA (NOAA-15 ) Date (METOP-C) Time (METOP-C) Lat,Lon (METOP-C) SZA (METOP-C ) Distance(km) Time Diff (sec)
1 02/21/2023 16:54:09 81.07, -35.04 93.10 02/21/2023 16:52:57 81.07, -34.85 93.09 3.37 72
2 02/21/2023 17:44:41 -81.07, 132.41 86.91 02/21/2023 17:43:39 -81.07, 132.50 86.93 1.54 62
3 02/21/2023 18:35:10 81.07, -60.17 93.08 02/21/2023 18:34:19 81.07, -60.34 93.05 2.96 51
4 02/21/2023 19:25:42 -81.08, 106.91 86.95 02/21/2023 19:25:00 -81.07, 107.01 86.97 2.37 42
5 02/21/2023 20:16:10 81.06, -85.31 93.06 02/21/2023 20:15:39 81.07, -85.47 93.05 3.04 31
6 02/21/2023 21:06:43 -81.08, 81.77 86.97 02/21/2023 21:06:21 -81.08, 81.88 86.97 1.93 22
7 02/21/2023 21:57:12 81.08,-110.81 93.03 02/21/2023 21:57:01 81.07,-110.97 93.00 2.81 11
8 02/21/2023 22:47:44 -81.07, 56.63 86.99 02/21/2023 22:47:42 -81.08, 56.75 86.97 2.53 2
9 02/21/2023 23:38:13 81.07,-135.95 93.01 02/21/2023 23:38:22 81.08,-136.10 93.00 2.69 9
10 02/22/2023 00:28:46 -81.08, 31.12 87.03 02/22/2023 00:29:04 -81.08, 31.26 87.01 2.41 18
11 02/22/2023 01:19:15 81.08,-161.45 92.97 02/22/2023 01:19:44 81.07,-161.59 92.96 2.73 29
12 02/22/2023 02:09:47 -81.08, 5.98 87.05 02/22/2023 02:10:25 -81.09, 6.13 87.01 2.72 38
13 02/22/2023 03:00:16 81.08, 173.42 92.95 02/22/2023 03:01:05 81.08, 173.28 92.96 2.38 49
14 02/22/2023 03:50:49 -81.09, -19.53 87.08 02/22/2023 03:51:47 -81.08, -19.37 87.06 2.94 58



Historial Predications of SNOs between NOAA-15 and METOP-C
